Location: *
(50.6089°N, 2.2719°E)
Time: 13:33:51
(UTC+00:00)

Cosmos 2233 Rocket - Pass Details

Date: 18 October 2019
Orbit: 954 x 990 km, 82.9° (Epoch: 13 November)

Event Time Altitude Azimuth Distance (km) Brightness Sun altitude
Rises 19:56:44 0° 351° (N) 3,690 7.4 -29.4°
Reaches altitude 10° 19:59:16 10° 353° (N) 2,743 6.7 -29.8°
Enters shadow 20:04:18 57° 17° (NNE) 1,153 4.3 -30.5°
